�������l�o���
Date,Time,MP-1(��Sv/h),MP-2(��Sv/h),MP-3(��Sv/h),MP-4(��Sv/h),MP-5(��Sv/h),MP-6(��Sv/h),MP-7(��Sv/h),MP-8(��Sv/h),����,����(m/s),���J
2020/06/28,00:00,0.683,0.966,0.630,1.176,0.852,0.400,0.683,0.638,��쐼,3.9,��
2020/06/28,00:10,0.684,0.966,0.631,1.179,0.853,0.398,0.682,0.638,��,4.8,��
2020/06/28,00:20,0.681,0.964,0.629,1.177,0.851,0.400,0.684,0.640,��쐼,4.3,��
2020/06/28,00:30,0.683,0.964,0.629,1.176,0.852,0.399,0.683,0.638,��,3.3,��
2020/06/28,00:40,0.684,0.965,0.629,1.177,0.852,0.399,0.682,0.639,��,4.5,��
2020/06/28,00:50,0.682,0.965,0.629,1.176,0.852,0.398,0.683,0.638,��,4.1,��
2020/06/28,01:00,0.683,0.967,0.630,1.178,0.852,0.400,0.682,0.638,��,4.2,��
2020/06/28,01:10,0.683,0.966,0.628,1.177,0.855,0.399,0.682,0.638,��,4.0,��
2020/06/28,01:20,0.684,0.967,0.631,1.180,0.852,0.399,0.685,0.638,��,4.4,��
2020/06/28,01:30,0.684,0.966,0.630,1.180,0.852,0.400,0.681,0.639,��,6.4,��
2020/06/28,01:40,0.684,0.965,0.627,1.176,0.850,0.400,0.684,0.638,��,6.3,��
2020/06/28,01:50,0.682,0.966,0.627,1.176,0.852,0.397,0.681,0.639,��쐼,6.2,��
2020/06/28,02:00,0.683,0.964,0.629,1.177,0.851,0.397,0.681,0.639,��쐼,6.3,��
2020/06/28,02:10,0.684,0.964,0.628,1.176,0.851,0.398,0.683,0.639,��,6.8,��
2020/06/28,02:20,0.680,0.966,0.629,1.177,0.850,0.397,0.683,0.637,��쐼,6.6,��
2020/06/28,02:30,0.682,0.966,0.629,1.178,0.851,0.397,0.683,0.639,��쐼,6.9,��
2020/06/28,02:40,0.682,0.963,0.630,1.179,0.851,0.400,0.682,0.638,��쐼,7.5,��
2020/06/28,02:50,0.682,0.965,0.629,1.177,0.851,0.397,0.682,0.638,��쐼,7.2,��
2020/06/28,03:00,0.681,0.963,0.630,1.179,0.851,0.398,0.683,0.639,��쐼,6.7,��
2020/06/28,03:10,0.680,0.964,0.629,1.177,0.853,0.397,0.682,0.639,��쐼,7.1,�L
2020/06/28,03:20,0.681,0.963,0.630,1.178,0.852,0.396,0.682,0.637,��쐼,6.9,�L
2020/06/28,03:30,0.682,0.961,0.628,1.180,0.850,0.397,0.681,0.640,��쐼,6.5,�L
2020/06/28,03:40,0.682,0.963,0.629,1.177,0.852,0.399,0.682,0.640,��,6.2,�L
2020/06/28,03:50,0.682,0.964,0.629,1.178,0.852,0.398,0.683,0.637,��쐼,5.8,�L
2020/06/28,04:00,0.682,0.965,0.631,1.178,0.852,0.398,0.682,0.640,��쐼,4.7,�L
2020/06/28,04:10,0.682,0.965,0.631,1.177,0.853,0.399,0.684,0.638,��쐼,4.0,�L
2020/06/28,04:20,0.682,0.964,0.630,1.178,0.854,0.398,0.682,0.641,��쐼,4.3,�L
2020/06/28,04:30,0.683,0.964,0.629,1.180,0.852,0.400,0.682,0.640,��쐼,3.9,�L
2020/06/28,04:40,0.685,0.964,0.630,1.181,0.851,0.400,0.683,0.640,�쐼,3.6,�L
2020/06/28,04:50,0.683,0.965,0.630,1.178,0.852,0.400,0.683,0.639,��쐼,4.4,�L
2020/06/28,05:00,0.683,0.965,0.631,1.178,0.852,0.399,0.682,0.638,�쐼,4.5,�L
2020/06/28,05:10,0.682,0.962,0.630,1.178,0.849,0.399,0.680,0.637,��쐼,4.5,�L
2020/06/28,05:20,0.681,0.958,0.628,1.178,0.849,0.400,0.680,0.637,�쐼,4.6,�L
2020/06/28,05:30,0.679,0.952,0.626,1.174,0.843,0.398,0.678,0.636,�쐼,4.1,�L
2020/06/28,05:40,0.677,0.949,0.624,1.171,0.839,0.397,0.676,0.635,�쐼,5.0,�L
2020/06/28,05:50,0.676,0.944,0.623,1.167,0.835,0.395,0.675,0.633,�쐼,6.0,�L
2020/06/28,06:00,0.674,0.941,0.622,1.165,0.833,0.395,0.673,0.633,��쐼,5.8,�L
2020/06/28,06:10,0.670,0.937,0.620,1.155,0.825,0.392,0.673,0.631,�쐼,5.6,�L
2020/06/28,06:20,0.669,0.934,0.617,1.151,0.822,0.393,0.671,0.630,��쐼,5.7,�L
2020/06/28,06:30,0.667,0.934,0.616,1.146,0.820,0.393,0.670,0.631,��쐼,5.3,�L
2020/06/28,06:40,0.663,0.928,0.614,1.141,0.818,0.391,0.668,0.629,��,3.9,�L
2020/06/28,06:50,0.661,0.924,0.613,1.135,0.817,0.390,0.668,0.627,-,CALM,�L
2020/06/28,07:00,0.663,0.924,0.614,1.134,0.817,0.391,0.667,0.626,�쐼,1.4,�L
2020/06/28,07:10,0.665,0.924,0.614,1.136,0.816,0.390,0.667,0.626,��쐼,1.4,�L
2020/06/28,07:20,0.664,0.926,0.613,1.133,0.817,0.392,0.667,0.625,��쓌,1.9,�L
2020/06/28,07:30,0.665,0.927,0.611,1.132,0.816,0.394,0.667,0.627,��쓌,2.2,�L
2020/06/28,07:40,0.664,0.925,0.613,1.133,0.816,0.391,0.666,0.626,��쓌,2.6,�L
2020/06/28,07:50,0.665,0.926,0.614,1.135,0.816,0.393,0.668,0.625,��쓌,1.7,�L
2020/06/28,08:00,0.666,0.925,0.612,1.134,0.817,0.394,0.667,0.625,��쐼,0.9,�L
2020/06/28,08:10,0.666,0.925,0.613,1.135,0.816,0.393,0.668,0.627,�쐼,2.0,�L
2020/06/28,08:20,0.667,0.928,0.614,1.134,0.818,0.393,0.669,0.627,���쐼,2.3,�L
2020/06/28,08:30,0.667,0.927,0.612,1.138,0.815,0.395,0.669,0.628,���쐼,2.3,�L
2020/06/28,08:40,0.667,0.929,0.612,1.136,0.818,0.393,0.669,0.626,���쐼,2.3,�L
2020/06/28,08:50,0.665,0.929,0.612,1.137,0.818,0.393,0.666,0.627,�쐼,2.3,�L
2020/06/28,09:00,0.666,0.928,0.613,1.137,0.818,0.392,0.668,0.628,���쐼,2.8,�L
2020/06/28,09:10,0.666,0.929,0.611,1.136,0.815,0.393,0.667,0.628,��쐼,2.6,�L
2020/06/28,09:20,0.666,0.927,0.613,1.138,0.818,0.391,0.668,0.627,��,2.8,�L
2020/06/28,09:30,0.663,0.930,0.612,1.138,0.817,0.393,0.668,0.627,��,2.0,�L
2020/06/28,09:40,0.666,0.929,0.613,1.139,0.817,0.393,0.670,0.626,��쓌,2.0,�L
2020/06/28,09:50,0.665,0.929,0.612,1.137,0.818,0.392,0.669,0.627,��,3.3,�L
2020/06/28,10:00,0.666,0.927,0.610,1.139,0.817,0.392,0.668,0.627,��,2.6,�L
2020/06/28,10:10,0.663,0.928,0.612,1.139,0.818,0.393,0.667,0.627,��쓌,3.4,�L
2020/06/28,10:20,0.665,0.929,0.612,1.140,0.817,0.392,0.668,0.626,��쓌,3.5,�L
2020/06/28,10:30,0.665,0.929,0.612,1.142,0.818,0.391,0.669,0.627,��,4.2,�L
2020/06/28,10:40,0.665,0.929,0.612,1.140,0.817,0.393,0.668,0.628,��,4.2,�L
2020/06/28,10:50,0.666,0.930,0.612,1.139,0.820,0.394,0.668,0.626,��,4.3,�L
2020/06/28,11:00,0.666,0.927,0.612,1.138,0.816,0.393,0.666,0.627,��,5.0,�L
2020/06/28,11:10,0.665,0.927,0.612,1.136,0.814,0.393,0.667,0.625,��,5.1,�L
2020/06/28,11:20,0.665,0.927,0.610,1.137,0.815,0.393,0.668,0.626,��,5.3,�L
2020/06/28,11:30,0.664,0.925,0.611,1.137,0.814,0.392,0.666,0.626,��,5.4,�L
2020/06/28,11:40,0.664,0.925,0.612,1.132,0.813,0.393,0.666,0.626,��쐼,5.4,�L
2020/06/28,11:50,0.663,0.923,0.610,1.134,0.814,0.394,0.668,0.626,��,4.7,�L
2020/06/28,12:00,0.664,0.923,0.612,1.133,0.814,0.395,0.667,0.626,��,4.3,�L
2020/06/28,12:10,0.665,0.927,0.613,1.135,0.815,0.394,0.666,0.624,��,3.6,�L
2020/06/28,12:20,0.665,0.927,0.614,1.134,0.817,0.396,0.667,0.628,��,4.1,�L
2020/06/28,12:30,0.667,0.932,0.614,1.135,0.818,0.397,0.667,0.627,��쓌,4.6,�L
2020/06/28,12:40,0.666,0.929,0.615,1.133,0.817,0.395,0.670,0.626,��쓌,3.9,�L
2020/06/28,12:50,0.667,0.930,0.617,1.136,0.816,0.396,0.667,0.627,��쓌,4.1,�L
2020/06/28,13:00,0.665,0.928,0.614,1.135,0.817,0.396,0.668,0.627,��쓌,1.9,�L
2020/06/28,13:10,0.667,0.930,0.613,1.136,0.815,0.394,0.667,0.627,��쐼,1.4,�L
2020/06/28,13:20,0.666,0.930,0.613,1.136,0.818,0.395,0.668,0.627,�쐼,2.3,�L
2020/06/28,13:30,0.666,0.929,0.613,1.136,0.816,0.393,0.669,0.627,��,2.0,��
2020/06/28,13:40,0.664,0.932,0.614,1.135,0.816,0.394,0.669,0.627,��쓌,1.5,��
2020/06/28,13:50,0.666,0.932,0.614,1.136,0.818,0.396,0.666,0.626,��쓌,1.2,��
2020/06/28,14:00,0.666,0.929,0.611,1.138,0.817,0.393,0.669,0.625,�쓌,1.7,��
2020/06/28,14:10,0.667,0.931,0.612,1.136,0.817,0.394,0.670,0.625,�쓌,2.8,��
2020/06/28,14:20,0.665,0.930,0.613,1.137,0.818,0.393,0.669,0.627,���쓌,2.2,��
2020/06/28,14:30,0.667,0.933,0.612,1.136,0.818,0.394,0.668,0.627,�쓌,2.3,��
2020/06/28,14:40,0.666,0.935,0.613,1.136,0.820,0.393,0.669,0.627,�쓌,2.0,��
2020/06/28,14:50,0.666,0.933,0.611,1.136,0.819,0.393,0.668,0.627,���쓌,2.3,��
2020/06/28,15:00,0.667,0.935,0.613,1.138,0.821,0.393,0.669,0.628,���쓌,2.2,��
2020/06/28,15:10,0.666,0.937,0.611,1.138,0.820,0.393,0.669,0.628,���쓌,2.6,��
2020/06/28,15:20,0.665,0.936,0.613,1.140,0.823,0.393,0.669,0.627,���쓌,2.2,��
2020/06/28,15:30,0.667,0.936,0.612,1.139,0.822,0.393,0.671,0.628,���쓌,1.7,��
2020/06/28,15:40,0.665,0.938,0.613,1.142,0.821,0.393,0.671,0.628,�쓌,2.3,��
2020/06/28,15:50,0.667,0.939,0.612,1.140,0.821,0.393,0.672,0.627,�쓌,2.3,��
2020/06/28,16:00,0.667,0.938,0.612,1.141,0.821,0.392,0.670,0.629,�쓌,1.7,��
2020/06/28,16:10,0.667,0.938,0.614,1.143,0.822,0.394,0.672,0.628,�쓌,1.7,��
2020/06/28,16:20,0.665,0.937,0.613,1.142,0.820,0.393,0.672,0.628,��쓌,2.6,��
2020/06/28,16:30,0.668,0.940,0.612,1.143,0.823,0.392,0.672,0.629,��쓌,1.4,��
2020/06/28,16:40,0.669,0.939,0.615,1.143,0.823,0.393,0.673,0.627,��쓌,1.7,��
2020/06/28,16:50,0.666,0.940,0.614,1.142,0.823,0.392,0.672,0.628,��쓌,1.7,��
2020/06/28,17:00,0.667,0.942,0.613,1.140,0.822,0.391,0.673,0.629,��쓌,2.2,��
2020/06/28,17:10,0.670,0.939,0.614,1.143,0.823,0.392,0.672,0.628,��쓌,2.2,��
2020/06/28,17:20,0.667,0.940,0.613,1.145,0.823,0.392,0.674,0.628,��쓌,2.6,��
2020/06/28,17:30,0.666,0.942,0.613,1.146,0.822,0.392,0.673,0.629,��,2.6,��
2020/06/28,17:40,0.668,0.943,0.615,1.145,0.824,0.392,0.672,0.627,��,3.1,��
2020/06/28,17:50,0.666,0.945,0.615,1.144,0.822,0.392,0.673,0.629,��,3.3,�L
2020/06/28,18:00,0.666,0.944,0.614,1.146,0.825,0.393,0.674,0.630,��,3.2,��
2020/06/28,18:10,0.668,0.945,0.617,1.147,0.825,0.393,0.673,0.630,��쐼,2.2,��
2020/06/28,18:20,0.667,0.946,0.617,1.148,0.823,0.392,0.673,0.630,��,2.8,��
2020/06/28,18:30,0.669,0.945,0.615,1.147,0.826,0.393,0.673,0.630,��,2.3,��
2020/06/28,18:40,0.670,0.945,0.616,1.148,0.825,0.393,0.672,0.630,��,0.8,��
2020/06/28,18:50,0.667,0.947,0.616,1.148,0.828,0.395,0.672,0.628,�k�k��,1.1,�L
2020/06/28,19:00,0.669,0.944,0.617,1.151,0.828,0.393,0.675,0.631,�k��,0.6,��
2020/06/28,19:10,0.668,0.946,0.616,1.151,0.827,0.395,0.674,0.632,-,CALM,��
2020/06/28,19:20,0.667,0.946,0.616,1.151,0.827,0.394,0.673,0.631,��,0.9,��
2020/06/28,19:30,0.666,0.945,0.617,1.150,0.828,0.394,0.672,0.632,���쐼,0.8,��
2020/06/28,19:40,0.670,0.947,0.617,1.150,0.826,0.395,0.676,0.633,���쐼,2.7,��
2020/06/28,19:50,0.670,0.945,0.617,1.151,0.828,0.393,0.674,0.631,��,3.3,��
2020/06/28,20:00,0.670,0.946,0.617,1.152,0.829,0.394,0.675,0.630,���k��,1.9,��
2020/06/28,20:10,0.670,0.947,0.619,1.151,0.827,0.395,0.676,0.631,��,2.3,��
2020/06/28,20:20,0.669,0.945,0.618,1.152,0.830,0.395,0.677,0.631,��,2.8,��
2020/06/28,20:30,0.669,0.947,0.620,1.151,0.829,0.395,0.675,0.631,��,2.6,��
2020/06/28,20:40,0.670,0.944,0.616,1.151,0.829,0.395,0.677,0.632,���k��,4.3,��
2020/06/28,20:50,0.672,0.945,0.619,1.153,0.830,0.396,0.677,0.632,���k��,6.7,��
2020/06/28,21:00,0.671,0.944,0.617,1.151,0.828,0.394,0.678,0.632,�k��,6.3,��
2020/06/28,21:10,0.669,0.944,0.618,1.154,0.828,0.395,0.675,0.633,�k��,5.3,��
2020/06/28,21:20,0.671,0.944,0.617,1.153,0.832,0.396,0.677,0.633,�k��,4.8,��
2020/06/28,21:30,0.670,0.945,0.618,1.151,0.829,0.395,0.678,0.632,�k��,5.0,��
2020/06/28,21:40,0.672,0.944,0.618,1.152,0.832,0.395,0.677,0.632,���k��,5.9,��
2020/06/28,21:50,0.670,0.945,0.619,1.155,0.828,0.396,0.677,0.632,�k��,5.0,��
2020/06/28,22:00,0.670,0.946,0.618,1.151,0.829,0.395,0.676,0.632,�k�k��,4.2,��
2020/06/28,22:10,0.672,0.944,0.617,1.153,0.828,0.395,0.680,0.632,�k�k��,5.1,��
2020/06/28,22:20,0.669,0.944,0.620,1.153,0.827,0.394,0.676,0.633,�k�k��,5.5,��
2020/06/28,22:30,0.669,0.943,0.617,1.153,0.827,0.395,0.676,0.633,�k��,5.5,��
2020/06/28,22:40,0.670,0.944,0.618,1.151,0.828,0.393,0.677,0.631,�k�k��,4.1,��
2020/06/28,22:50,0.670,0.945,0.617,1.154,0.829,0.394,0.676,0.632,�k��,4.7,��
2020/06/28,23:00,0.668,0.943,0.618,1.154,0.830,0.395,0.677,0.632,�k�k��,5.8,��
2020/06/28,23:10,0.670,0.942,0.617,1.152,0.831,0.394,0.678,0.631,�k��,3.6,��
2020/06/28,23:20,0.670,0.944,0.619,1.153,0.828,0.393,0.678,0.633,�k�k��,4.6,��
2020/06/28,23:30,0.671,0.945,0.615,1.153,0.829,0.394,0.677,0.632,�k�k��,4.9,��
2020/06/28,23:40,0.672,0.944,0.616,1.152,0.829,0.394,0.677,0.633,�k�k��,4.0,��
2020/06/28,23:50,0.669,0.943,0.616,1.152,0.829,0.393,0.676,0.631,�k�k��,3.3,��
